| time (UTC) | temp F | wind direction | speed MPH | gust MPH | rain 1hr in | rain 24hr in | rain mn in | humidity % | barometer mb |
| 20260902120439 | 73 | 198 | 0.0 | 0.0 | 0.00 | 0.00 | 0.00 | 87 | 1014.9 |
| 20260902115938 | 73 | 198 | 0.0 | 0.0 | 0.00 | 0.00 | 0.00 | 87 | 1014.6 |
| 20260902115435 | 74 | 198 | 0.0 | 0.0 | 0.00 | 0.00 | 0.00 | 87 | 1014.7 |
| 20260902114931 | 74 | 198 | 0.0 | 0.0 | 0.00 | 0.00 | 0.00 | 86 | 1014.7 |
| 20260902114426 | 74 | 198 | 0.0 | 0.0 | 0.00 | 0.00 | 0.00 | 86 | 1014.8 |
| 20260902113921 | 74 | 198 | 0.0 | 0.0 | 0.00 | 0.00 | 0.00 | 86 | 1014.8 |
| 20260902113417 | 74 | 198 | 0.0 | 0.0 | 0.00 | 0.00 | 0.00 | 86 | 1014.7 |
| 20260902112916 | 74 | 198 | 0.0 | 0.0 | 0.00 | 0.00 | 0.00 | 86 | 1014.9 |
| 20260902112413 | 74 | 198 | 0.0 | 0.0 | 0.00 | 0.00 | 0.00 | 86 | 1014.7 |
| 20260902111908 | 74 | 198 | 0.0 | 0.0 | 0.00 | 0.00 | 0.00 | 86 | 1014.7 |
| 20260902111405 | 74 | 198 | 0.0 | 0.0 | 0.00 | 0.00 | 0.00 | 86 | 1015.0 |
| 20260902110900 | 74 | 198 | 0.0 | 0.0 | 0.00 | 0.00 | 0.00 | 86 | 1014.6 |
| 20260902110356 | 74 | 198 | 0.0 | 0.0 | 0.00 | 0.00 | 0.00 | 86 | 1014.7 |
| 20260902105856 | 74 | 198 | 0.0 | 0.0 | 0.00 | 0.00 | 0.00 | 86 | 1014.7 |
| 20260902105350 | 74 | 198 | 0.0 | 0.0 | 0.00 | 0.00 | 0.00 | 86 | 1014.8 |
| 20260902104845 | 74 | 198 | 0.0 | 0.0 | 0.00 | 0.00 | 0.00 | 86 | 1014.7 |
| 20260902104341 | 75 | 198 | 0.0 | 0.0 | 0.00 | 0.00 | 0.00 | 85 | 1014.7 |
| 20260902103836 | 74 | 198 | 0.0 | 0.0 | 0.00 | 0.00 | 0.00 | 85 | 1014.7 |
| 20260902103331 | 75 | 198 | 0.0 | 0.0 | 0.00 | 0.00 | 0.00 | 85 | 1014.8 |
| 20260902102825 | 75 | 198 | 0.0 | 0.0 | 0.00 | 0.00 | 0.00 | 85 | 1014.7 |
| 20260902102324 | 75 | 198 | 0.0 | 0.0 | 0.00 | 0.00 | 0.00 | 85 | 1014.9 |
| 20260902101819 | 75 | 198 | 0.0 | 0.0 | 0.00 | 0.00 | 0.00 | 85 | 1014.8 |
| 20260902101318 | 75 | 198 | 0.0 | 0.0 | 0.00 | 0.00 | 0.00 | 85 | 1014.7 |
| 20260902100812 | 75 | 198 | 0.0 | 0.0 | 0.00 | 0.00 | 0.00 | 85 | 1014.9 |
| 20260902100306 | 75 | 198 | 0.0 | 0.0 | 0.00 | 0.00 | 0.00 | 84 | 1014.9 |
| 20260902095801 | 75 | 198 | 0.0 | 0.0 | 0.00 | 0.00 | 0.00 | 84 | 1014.8 |
| 20260902095256 | 75 | 198 | 0.0 | 0.0 | 0.00 | 0.00 | 0.00 | 84 | 1014.8 |
| 20260902094750 | 75 | 198 | 0.0 | 0.0 | 0.00 | 0.00 | 0.00 | 83 | 1014.9 |
| 20260902094247 | 76 | 198 | 0.0 | 0.0 | 0.00 | 0.00 | 0.00 | 83 | 1014.9 |
| 20260902093746 | 76 | 198 | 0.0 | 0.0 | 0.00 | 0.00 | 0.00 | 82 | 1015.0 |
| 20260902093242 | 76 | 198 | 0.0 | 0.0 | 0.00 | 0.00 | 0.00 | 82 | 1014.6 |
| 20260902092741 | 76 | 198 | 0.0 | 0.0 | 0.00 | 0.00 | 0.00 | 81 | 1014.6 |
| 20260902092236 | 77 | 198 | 0.0 | 0.0 | 0.00 | 0.00 | 0.00 | 81 | 1014.6 |
| 20260902091735 | 77 | 198 | 0.0 | 0.0 | 0.00 | 0.00 | 0.00 | 80 | 1014.7 |
| 20260902091232 | 77 | 198 | 0.0 | 0.0 | 0.00 | 0.00 | 0.00 | 80 | 1014.7 |
| 20260902090728 | 77 | 198 | 0.0 | 0.0 | 0.00 | 0.00 | 0.00 | 80 | 1014.7 |
| 20260902090227 | 77 | 199 | 0.0 | 0.0 | 0.00 | 0.00 | 0.00 | 80 | 1014.7 |
| 20260902085721 | 78 | 201 | 0.0 | 0.0 | 0.00 | 0.00 | 0.00 | 79 | 1014.4 |
| 20260902085217 | 78 | 201 | 0.0 | 0.0 | 0.00 | 0.00 | 0.00 | 79 | 1014.4 |
| 20260902084713 | 78 | 201 | 0.0 | 0.0 | 0.00 | 0.00 | 0.00 | 78 | 1014.5 |
| 20260902084209 | 78 | 201 | 0.0 | 0.0 | 0.00 | 0.00 | 0.00 | 78 | 1014.6 |
| 20260902083708 | 78 | 211 | 0.0 | 0.0 | 0.00 | 0.00 | 0.00 | 78 | 1014.4 |
| 20260902083203 | 78 | 200 | 0.0 | 0.0 | 0.00 | 0.00 | 0.00 | 78 | 1014.5 |
| 20260902082658 | 78 | 207 | 0.0 | 0.0 | 0.00 | 0.00 | 0.00 | 77 | 1014.5 |
| 20260902082155 | 79 | 201 | 0.0 | 0.0 | 0.00 | 0.00 | 0.00 | 77 | 1014.4 |
| 20260902081651 | 79 | 192 | 0.0 | 0.0 | 0.00 | 0.00 | 0.00 | 77 | 1014.6 |
| 20260902081146 | 79 | 172 | 0.0 | 0.0 | 0.00 | 0.00 | 0.00 | 77 | 1014.5 |
| 20260902080641 | 79 | 191 | 0.0 | 0.0 | 0.00 | 0.00 | 0.00 | 77 | 1014.7 |
| 20260902080138 | 79 | 181 | 0.0 | 0.0 | 0.00 | 0.00 | 0.00 | 77 | 1014.7 |
| 20260902075637 | 79 | 193 | 0.0 | 0.0 | 0.00 | 0.00 | 0.00 | 77 | 1014.7 |
| 20260902075133 | 79 | 186 | 0.0 | 0.0 | 0.00 | 0.00 | 0.00 | 76 | 1014.6 |
| 20260902074628 | 79 | 168 | 0.0 | 0.0 | 0.00 | 0.00 | 0.00 | 76 | 1014.7 |
| 20260902074123 | 80 | 183 | 0.0 | 0.0 | 0.00 | 0.00 | 0.00 | 76 | 1014.9 |
| 20260902073618 | 80 | 190 | 0.0 | 0.0 | 0.00 | 0.00 | 0.00 | 76 | 1015.0 |
| 20260902073115 | 80 | 175 | 0.0 | 0.0 | 0.00 | 0.00 | 0.00 | 75 | 1014.8 |
| 20260902072610 | 80 | 168 | 0.0 | 0.0 | 0.00 | 0.00 | 0.00 | 75 | 1014.7 |
| 20260902072106 | 80 | 156 | 0.0 | 0.0 | 0.00 | 0.00 | 0.00 | 74 | 1014.7 |
| 20260902071601 | 80 | 166 | 0.0 | 0.0 | 0.00 | 0.00 | 0.00 | 74 | 1014.9 |
| 20260902071057 | 81 | 183 | 0.0 | 0.0 | 0.00 | 0.00 | 0.00 | 74 | 1014.8 |
| 20260902070552 | 81 | 183 | 0.0 | 0.0 | 0.00 | 0.00 | 0.00 | 74 | 1014.8 |
| 20260902070041 | 81 | 179 | 0.0 | 0.0 | 0.00 | 0.00 | 0.00 | 74 | 1015.1 |
| 20260902065535 | 81 | 169 | 0.0 | 0.0 | 0.00 | 0.00 | 0.00 | 73 | 1014.9 |
| 20260902065030 | 81 | 173 | 0.0 | 0.0 | 0.00 | 0.00 | 0.00 | 73 | 1015.2 |
| 20260902064526 | 81 | 168 | 0.0 | 0.0 | 0.00 | 0.00 | 0.00 | 73 | 1014.9 |
| 20260902064022 | 82 | 174 | 0.0 | 0.0 | 0.00 | 0.00 | 0.00 | 73 | 1014.8 |
| 20260902063521 | 82 | 182 | 0.0 | 0.0 | 0.00 | 0.00 | 0.00 | 72 | 1014.8 |
| 20260902063016 | 82 | 176 | 0.0 | 0.0 | 0.00 | 0.00 | 0.00 | 72 | 1014.7 |
| 20260902062514 | 82 | 177 | 0.0 | 0.0 | 0.00 | 0.00 | 0.00 | 72 | 1014.8 |
| 20260902062010 | 82 | 163 | 0.0 | 0.0 | 0.00 | 0.00 | 0.00 | 72 | 1014.6 |
| 20260902061504 | 82 | 167 | 0.0 | 1.0 | 0.00 | 0.00 | 0.00 | 72 | 1014.6 |
| 20260902061000 | 82 | 167 | 0.0 | 0.0 | 0.00 | 0.00 | 0.00 | 71 | 1014.6 |
| 20260902060456 | 82 | 176 | 0.0 | 0.0 | 0.00 | 0.00 | 0.00 | 71 | 1014.7 |
| 20260902055952 | 82 | 164 | 0.0 | 0.0 | 0.00 | 0.00 | 0.00 | 71 | 1014.7 |
| 20260902055448 | 83 | 182 | 0.0 | 0.0 | 0.00 | 0.00 | 0.00 | 71 | 1014.7 |
| 20260902054944 | 83 | 134 | 5.0 | 7.0 | 0.00 | 0.00 | 0.00 | 71 | 1014.5 |
| 20260902054433 | 83 | 182 | 0.0 | 0.0 | 0.00 | 0.00 | 0.00 | 71 | 1014.6 |
| 20260902053929 | 83 | 90 | 3.0 | 8.0 | 0.00 | 0.00 | 0.00 | 70 | 1014.4 |
| 20260902053424 | 83 | 169 | 0.0 | 0.0 | 0.00 | 0.00 | 0.00 | 70 | 1014.5 |
| 20260902052923 | 83 | 172 | 1.0 | 4.0 | 0.00 | 0.00 | 0.00 | 70 | 1014.7 |
| 20260902052418 | 83 | 171 | 4.0 | 4.0 | 0.00 | 0.00 | 0.00 | 70 | 1014.6 |
| 20260902051913 | 83 | 181 | 1.0 | 2.0 | 0.00 | 0.00 | 0.00 | 70 | 1014.5 |
| 20260902051408 | 83 | 181 | 0.0 | 0.0 | 0.00 | 0.00 | 0.00 | 70 | 1014.5 |
| 20260902050906 | 83 | 163 | 4.0 | 6.0 | 0.00 | 0.00 | 0.00 | 70 | 1014.7 |
| 20260902050401 | 83 | 165 | 0.0 | 0.0 | 0.00 | 0.00 | 0.00 | 69 | 1014.6 |
| 20260902045856 | 83 | 164 | 0.0 | 0.0 | 0.00 | 0.00 | 0.00 | 69 | 1014.7 |
| 20260902045351 | 83 | 167 | 0.0 | 0.0 | 0.00 | 0.00 | 0.00 | 69 | 1014.5 |
| 20260902044848 | 84 | 176 | 0.0 | 0.0 | 0.00 | 0.00 | 0.00 | 69 | 1014.5 |
| 20260902044343 | 84 | 177 | 0.0 | 0.0 | 0.00 | 0.00 | 0.00 | 68 | 1014.7 |
| 20260902043843 | 84 | 180 | 1.0 | 1.0 | 0.00 | 0.00 | 0.00 | 68 | 1014.6 |
| 20260902043338 | 84 | 175 | 0.0 | 0.0 | 0.00 | 0.00 | 0.00 | 68 | 1014.8 |
| 20260902042838 | 84 | 158 | 0.0 | 1.0 | 0.00 | 0.00 | 0.00 | 67 | 1014.6 |
| 20260902042332 | 84 | 176 | 2.0 | 3.0 | 0.00 | 0.00 | 0.00 | 67 | 1014.7 |
| 20260902041828 | 85 | 180 | 2.0 | 3.0 | 0.00 | 0.00 | 0.00 | 66 | 1014.5 |
| 20260902041328 | 85 | 173 | 0.0 | 0.0 | 0.00 | 0.00 | 0.00 | 66 | 1014.5 |
| 20260902040826 | 85 | 172 | 2.0 | 2.0 | 0.00 | 0.00 | 0.00 | 65 | 1014.7 |
| 20260902040322 | 85 | 159 | 1.0 | 3.0 | 0.00 | 0.00 | 0.00 | 65 | 1014.5 |
| 20260902035820 | 85 | 167 | 1.0 | 6.0 | 0.00 | 0.00 | 0.00 | 64 | 1014.5 |
| 20260902035317 | 86 | 174 | 0.0 | 1.0 | 0.00 | 0.00 | 0.00 | 64 | 1014.5 |
| 20260902034815 | 86 | 179 | 3.0 | 3.0 | 0.00 | 0.00 | 0.00 | 63 | 1014.5 |
| 20260902034311 | 86 | 156 | 3.0 | 4.0 | 0.00 | 0.00 | 0.00 | 63 | 1014.5 |
| 20260902033808 | 86 | 151 | 1.0 | 2.0 | 0.00 | 0.00 | 0.00 | 62 | 1014.4 |
| 20260902033304 | 86 | 177 | 1.0 | 3.0 | 0.00 | 0.00 | 0.00 | 62 | 1014.5 |
| 20260902032803 | 86 | 147 | 4.0 | 7.0 | 0.00 | 0.00 | 0.00 | 62 | 1014.2 |
| 20260902032258 | 84 | 179 | 0.0 | 0.0 | 0.00 | 0.00 | 0.00 | 63 | 1014.4 |
| 20260902031757 | 84 | 187 | 0.0 | 0.0 | 0.00 | 0.00 | 0.00 | 65 | 1013.9 |
| 20260902031253 | 85 | 187 | 0.0 | 0.0 | 0.00 | 0.00 | 0.00 | 64 | 1013.9 |
| 20260902030748 | 85 | 187 | 0.0 | 0.0 | 0.00 | 0.00 | 0.00 | 63 | 1013.9 |
| 20260902030243 | 85 | 187 | 0.0 | 0.0 | 0.00 | 0.00 | 0.00 | 63 | 1013.7 |
| 20260902025742 | 85 | 187 | 0.0 | 0.0 | 0.00 | 0.00 | 0.00 | 63 | 1013.6 |
| 20260902025238 | 85 | 187 | 0.0 | 0.0 | 0.00 | 0.00 | 0.00 | 63 | 1013.4 |
| 20260902024732 | 85 | 187 | 0.0 | 0.0 | 0.00 | 0.00 | 0.00 | 62 | 1013.4 |
| 20260902024228 | 85 | 187 | 0.0 | 0.0 | 0.00 | 0.00 | 0.00 | 62 | 1013.5 |
| 20260902023724 | 86 | 187 | 0.0 | 0.0 | 0.00 | 0.00 | 0.00 | 62 | 1013.3 |
| 20260902023219 | 86 | 187 | 0.0 | 0.0 | 0.00 | 0.00 | 0.00 | 61 | 1013.4 |
| 20260902022719 | 86 | 187 | 0.0 | 0.0 | 0.00 | 0.00 | 0.00 | 61 | 1013.1 |
| 20260902022214 | 87 | 187 | 0.0 | 0.0 | 0.00 | 0.00 | 0.00 | 60 | 1013.0 |
| 20260902021709 | 87 | 187 | 0.0 | 0.0 | 0.00 | 0.00 | 0.00 | 60 | 1013.1 |
| 20260902021204 | 87 | 187 | 0.0 | 0.0 | 0.00 | 0.00 | 0.00 | 59 | 1013.0 |
| 20260902020700 | 87 | 187 | 0.0 | 0.0 | 0.00 | 0.00 | 0.00 | 59 | 1012.9 |
| 20260902020155 | 87 | 187 | 0.0 | 0.0 | 0.00 | 0.00 | 0.00 | 59 | 1012.9 |
| 20260902015651 | 87 | 184 | 0.0 | 0.0 | 0.00 | 0.00 | 0.00 | 58 | 1012.7 |
| 20260902015148 | 88 | 183 | 0.0 | 0.0 | 0.00 | 0.00 | 0.00 | 57 | 1012.9 |
| 20260902014643 | 89 | 183 | 0.0 | 0.0 | 0.00 | 0.00 | 0.00 | 57 | 1012.8 |
| 20260902014138 | 89 | 179 | 0.0 | 0.0 | 0.00 | 0.00 | 0.00 | 56 | 1012.7 |
| 20260902013637 | 89 | 179 | 0.0 | 0.0 | 0.00 | 0.00 | 0.00 | 56 | 1012.7 |
| 20260902013134 | 89 | 179 | 0.0 | 0.0 | 0.00 | 0.00 | 0.00 | 55 | 1012.5 |
| 20260902012629 | 89 | 176 | 0.0 | 0.0 | 0.00 | 0.00 | 0.00 | 55 | 1012.9 |
| 20260902012124 | 89 | 148 | 0.0 | 0.0 | 0.00 | 0.00 | 0.00 | 54 | 1012.6 |
| 20260902011620 | 90 | 154 | 0.0 | 0.0 | 0.00 | 0.00 | 0.00 | 54 | 1012.9 |
| 20260902011119 | 90 | 108 | 0.0 | 0.0 | 0.00 | 0.00 | 0.00 | 54 | 1012.5 |
| 20260902010613 | 90 | 155 | 0.0 | 0.0 | 0.00 | 0.00 | 0.00 | 53 | 1012.6 |
| 20260902010109 | 90 | 155 | 0.0 | 0.0 | 0.00 | 0.00 | 0.00 | 53 | 1012.7 |
| 20260902005606 | 91 | 155 | 0.0 | 0.0 | 0.00 | 0.00 | 0.00 | 52 | 1012.7 |
| 20260902005103 | 91 | 154 | 0.0 | 0.0 | 0.00 | 0.00 | 0.00 | 52 | 1012.5 |
| 20260902004602 | 92 | 154 | 0.0 | 0.0 | 0.00 | 0.00 | 0.00 | 51 | 1012.4 |
| 20260902004057 | 92 | 154 | 0.0 | 0.0 | 0.00 | 0.00 | 0.00 | 51 | 1012.5 |
| 20260902003552 | 93 | 154 | 0.0 | 0.0 | 0.00 | 0.00 | 0.00 | 50 | 1012.5 |
| 20260902003048 | 93 | 38 | 2.0 | 3.0 | 0.00 | 0.00 | 0.00 | 49 | 1012.5 |
| 20260902002543 | 94 | 118 | 1.0 | 2.0 | 0.00 | 0.00 | 0.00 | 49 | 1012.6 |
| 20260902002038 | 94 | 14 | 0.0 | 1.0 | 0.00 | 0.00 | 0.00 | 48 | 1012.4 |
| 20260902001533 | 94 | 156 | 0.0 | 0.0 | 0.00 | 0.00 | 0.00 | 48 | 1012.5 |
| 20260902001028 | 95 | 135 | 0.0 | 1.0 | 0.00 | 0.00 | 0.00 | 48 | 1012.7 |
| 20260902000522 | 95 | 157 | 0.0 | 0.0 | 0.00 | 0.00 | 0.00 | 48 | 1012.7 |
| 20260902000018 | 94 | 152 | 0.0 | 1.0 | 0.00 | 0.00 | 0.00 | 48 | 1012.6 |
| 20260901235513 | 94 | 173 | 0.0 | 0.0 | 0.00 | 0.00 | 0.00 | 48 | 1012.7 |
| 20260901235008 | 95 | 123 | 0.0 | 0.0 | 0.00 | 0.00 | 0.00 | 48 | 1012.8 |
| 20260901234506 | 94 | 137 | 2.0 | 3.0 | 0.00 | 0.00 | 0.00 | 48 | 1012.5 |
| 20260901234001 | 94 | 121 | 0.0 | 0.0 | 0.00 | 0.00 | 0.00 | 49 | 1012.4 |
| 20260901233456 | 94 | 178 | 2.0 | 2.0 | 0.00 | 0.00 | 0.00 | 48 | 1012.5 |
| 20260901232953 | 95 | 175 | 0.0 | 0.0 | 0.00 | 0.00 | 0.00 | 48 | 1012.6 |
| 20260901232448 | 95 | 142 | 2.0 | 4.0 | 0.00 | 0.00 | 0.00 | 47 | 1012.9 |
| 20260901231943 | 95 | 122 | 3.0 | 3.0 | 0.00 | 0.00 | 0.00 | 47 | 1012.6 |
| 20260901231439 | 95 | 175 | 0.0 | 1.0 | 0.00 | 0.00 | 0.00 | 46 | 1012.8 |
| 20260901230936 | 95 | 135 | 2.0 | 3.0 | 0.00 | 0.00 | 0.00 | 46 | 1012.7 |
| 20260901230435 | 95 | 77 | 2.0 | 3.0 | 0.00 | 0.00 | 0.00 | 46 | 1012.8 |
| 20260901225931 | 95 | 108 | 0.0 | 0.0 | 0.00 | 0.00 | 0.00 | 46 | 1012.8 |
| 20260901225430 | 95 | 156 | 0.0 | 0.0 | 0.00 | 0.00 | 0.00 | 46 | 1013.0 |
| 20260901224925 | 95 | 77 | 0.0 | 0.0 | 0.00 | 0.00 | 0.00 | 46 | 1012.7 |
| 20260901224421 | 95 | 193 | 0.0 | 0.0 | 0.00 | 0.00 | 0.00 | 46 | 1012.9 |
| 20260901223918 | 96 | 277 | 1.0 | 1.0 | 0.00 | 0.00 | 0.00 | 46 | 1013.0 |
| 20260901223413 | 95 | 147 | 0.0 | 0.0 | 0.00 | 0.00 | 0.00 | 46 | 1012.7 |
| 20260901222908 | 95 | 39 | 3.0 | 3.0 | 0.00 | 0.00 | 0.00 | 46 | 1012.9 |
| 20260901222405 | 96 | 108 | 0.0 | 1.0 | 0.00 | 0.00 | 0.00 | 45 | 1012.9 |
| 20260901221900 | 96 | 174 | 0.0 | 0.0 | 0.00 | 0.00 | 0.00 | 46 | 1012.7 |
| 20260901221355 | 96 | 123 | 0.0 | 1.0 | 0.00 | 0.00 | 0.00 | 45 | 1012.9 |
| 20260901220850 | 96 | 106 | 0.0 | 1.0 | 0.00 | 0.00 | 0.00 | 45 | 1012.9 |
| 20260901220348 | 96 | 144 | 0.0 | 0.0 | 0.00 | 0.00 | 0.00 | 45 | 1013.0 |
| 20260901215848 | 96 | 165 | 0.0 | 0.0 | 0.00 | 0.00 | 0.00 | 45 | 1012.9 |
| 20260901215347 | 96 | 149 | 0.0 | 0.0 | 0.00 | 0.00 | 0.00 | 45 | 1012.9 |
| 20260901214845 | 96 | 60 | 0.0 | 2.0 | 0.00 | 0.00 | 0.00 | 45 | 1013.0 |
| 20260901214339 | 96 | 97 | 1.0 | 1.0 | 0.00 | 0.00 | 0.00 | 45 | 1013.2 |
| 20260901213834 | 96 | 74 | 0.0 | 0.0 | 0.00 | 0.00 | 0.00 | 45 | 1013.1 |
| 20260901213334 | 97 | 87 | 0.0 | 1.0 | 0.00 | 0.00 | 0.00 | 45 | 1013.0 |
| 20260901212828 | 99 | 12 | 1.0 | 2.0 | 0.00 | 0.00 | 0.00 | 44 | 1013.1 |
| 20260901212324 | 100 | 11 | 2.0 | 3.0 | 0.00 | 0.00 | 0.00 | 40 | 1013.2 |
| 20260901211820 | 98 | 170 | 0.0 | 0.0 | 0.00 | 0.00 | 0.00 | 43 | 1012.9 |
| 20260901211316 | 98 | 117 | 0.0 | 0.0 | 0.00 | 0.00 | 0.00 | 43 | 1013.2 |
| 20260901210811 | 97 | 201 | 4.0 | 6.0 | 0.00 | 0.00 | 0.00 | 44 | 1013.2 |
| 20260901210307 | 98 | 185 | 0.0 | 0.0 | 0.00 | 0.00 | 0.00 | 43 | 1013.3 |
| 20260901205803 | 97 | 129 | 4.0 | 4.0 | 0.00 | 0.00 | 0.00 | 44 | 1013.5 |
| 20260901205306 | 98 | 122 | 0.0 | 1.0 | 0.00 | 0.00 | 0.00 | 44 | 1013.6 |
| 20260901204758 | 98 | 183 | 1.0 | 6.0 | 0.00 | 0.00 | 0.00 | 42 | 1013.7 |
| 20260901204254 | 96 | 119 | 0.0 | 0.0 | 0.00 | 0.00 | 0.00 | 45 | 1013.5 |
| 20260901203753 | 96 | 171 | 0.0 | 0.0 | 0.00 | 0.00 | 0.00 | 44 | 1013.7 |
| 20260901203248 | 96 | 97 | 0.0 | 1.0 | 0.00 | 0.00 | 0.00 | 45 | 1013.8 |
| 20260901202742 | 96 | 135 | 0.0 | 1.0 | 0.00 | 0.00 | 0.00 | 45 | 1013.4 |
| 20260901202238 | 97 | 183 | 0.0 | 1.0 | 0.00 | 0.00 | 0.00 | 46 | 1013.9 |
| 20260901201733 | 96 | 173 | 0.0 | 0.0 | 0.00 | 0.00 | 0.00 | 46 | 1013.7 |
| 20260901201232 | 96 | 173 | 0.0 | 0.0 | 0.00 | 0.00 | 0.00 | 46 | 1014.1 |
| 20260901200726 | 96 | 107 | 0.0 | 0.0 | 0.00 | 0.00 | 0.00 | 47 | 1014.1 |
| 20260901200222 | 97 | 160 | 0.0 | 0.0 | 0.00 | 0.00 | 0.00 | 45 | 1013.9 |
| 20260901195719 | 96 | 170 | 2.0 | 3.0 | 0.00 | 0.00 | 0.00 | 46 | 1014.1 |
| 20260901195214 | 96 | 200 | 4.0 | 4.0 | 0.00 | 0.00 | 0.00 | 45 | 1013.9 |
| 20260901194710 | 96 | 167 | 0.0 | 0.0 | 0.00 | 0.00 | 0.00 | 44 | 1014.2 |
| 20260901194204 | 97 | 172 | 0.0 | 1.0 | 0.00 | 0.00 | 0.00 | 45 | 1014.2 |
| 20260901193700 | 98 | 133 | 1.0 | 2.0 | 0.00 | 0.00 | 0.00 | 44 | 1014.0 |
| 20260901193154 | 98 | 165 | 2.0 | 3.0 | 0.00 | 0.00 | 0.00 | 44 | 1014.1 |
| 20260901192649 | 98 | 159 | 4.0 | 4.0 | 0.00 | 0.00 | 0.00 | 43 | 1014.0 |
| 20260901192144 | 96 | 184 | 2.0 | 2.0 | 0.00 | 0.00 | 0.00 | 46 | 1014.6 |
| 20260901191640 | 97 | 91 | 0.0 | 0.0 | 0.00 | 0.00 | 0.00 | 45 | 1014.6 |
| 20260901191136 | 98 | 80 | 2.0 | 3.0 | 0.00 | 0.00 | 0.00 | 45 | 1014.7 |
| 20260901190632 | 98 | 40 | 3.0 | 4.0 | 0.00 | 0.00 | 0.00 | 43 | 1014.9 |
| 20260901190131 | 97 | 344 | 3.0 | 3.0 | 0.00 | 0.00 | 0.00 | 45 | 1014.7 |
| 20260901185629 | 98 | 170 | 0.0 | 0.0 | 0.00 | 0.00 | 0.00 | 44 | 1014.9 |
| 20260901185128 | 98 | 174 | 0.0 | 0.0 | 0.00 | 0.00 | 0.00 | 44 | 1015.0 |
| 20260901184624 | 98 | 200 | 3.0 | 3.0 | 0.00 | 0.00 | 0.00 | 45 | 1015.0 |
| 20260901184119 | 98 | 169 | 1.0 | 1.0 | 0.00 | 0.00 | 0.00 | 43 | 1015.1 |
| 20260901183614 | 98 | 157 | 1.0 | 4.0 | 0.00 | 0.00 | 0.00 | 43 | 1015.1 |
| 20260901183109 | 96 | 187 | 0.0 | 0.0 | 0.00 | 0.00 | 0.00 | 46 | 1015.1 |
| 20260901182606 | 96 | 189 | 2.0 | 2.0 | 0.00 | 0.00 | 0.00 | 47 | 1015.5 |
| 20260901182104 | 97 | 73 | 2.0 | 2.0 | 0.00 | 0.00 | 0.00 | 45 | 1015.5 |
| 20260901181559 | 95 | 149 | 2.0 | 3.0 | 0.00 | 0.00 | 0.00 | 46 | 1015.4 |
| 20260901181058 | 96 | 191 | 4.0 | 4.0 | 0.00 | 0.00 | 0.00 | 48 | 1015.7 |
| 20260901180558 | 96 | 153 | 0.0 | 0.0 | 0.00 | 0.00 | 0.00 | 47 | 1015.8 |
| 20260901180052 | 96 | 152 | 0.0 | 0.0 | 0.00 | 0.00 | 0.00 | 47 | 1015.9 |
| 20260901175545 | 97 | 119 | 0.0 | 0.0 | 0.00 | 0.00 | 0.00 | 47 | 1016.0 |
| 20260901175040 | 98 | 198 | 2.0 | 2.0 | 0.00 | 0.00 | 0.00 | 45 | 1016.1 |
| 20260901174536 | 96 | 143 | 1.0 | 1.0 | 0.00 | 0.00 | 0.00 | 45 | 1016.1 |
| 20260901174032 | 97 | 105 | 2.0 | 3.0 | 0.00 | 0.00 | 0.00 | 47 | 1016.3 |
| 20260901173527 | 98 | 147 | 0.0 | 0.0 | 0.00 | 0.00 | 0.00 | 45 | 1016.1 |
| 20260901173023 | 97 | 60 | 2.0 | 2.0 | 0.00 | 0.00 | 0.00 | 46 | 1016.3 |
| 20260901172518 | 95 | 174 | 4.0 | 4.0 | 0.00 | 0.00 | 0.00 | 48 | 1016.6 |
| 20260901172016 | 94 | 174 | 0.0 | 0.0 | 0.00 | 0.00 | 0.00 | 52 | 1016.4 |
| 20260901171515 | 94 | 156 | 2.0 | 2.0 | 0.00 | 0.00 | 0.00 | 51 | 1016.3 |
| 20260901171014 | 93 | 264 | 0.0 | 0.0 | 0.00 | 0.00 | 0.00 | 53 | 1016.6 |
| 20260901170509 | 94 | 192 | 5.0 | 7.0 | 0.00 | 0.00 | 0.00 | 51 | 1016.2 |
| 20260901170009 | 92 | 220 | 0.0 | 0.0 | 0.00 | 0.00 | 0.00 | 54 | 1016.4 |
| 20260901165503 | 92 | 210 | 2.0 | 2.0 | 0.00 | 0.00 | 0.00 | 54 | 1016.4 |
| 20260901164958 | 94 | 189 | 5.0 | 6.0 | 0.00 | 0.00 | 0.00 | 53 | 1016.7 |
| 20260901164453 | 94 | 219 | 0.0 | 1.0 | 0.00 | 0.00 | 0.00 | 52 | 1016.6 |
| 20260901163948 | 93 | 57 | 0.0 | 0.0 | 0.00 | 0.00 | 0.00 | 54 | 1016.6 |
| 20260901163444 | 94 | 184 | 4.0 | 4.0 | 0.00 | 0.00 | 0.00 | 52 | 1016.8 |
| 20260901162943 | 93 | 210 | 0.0 | 0.0 | 0.00 | 0.00 | 0.00 | 53 | 1016.4 |
| 20260901162438 | 93 | 237 | 1.0 | 2.0 | 0.00 | 0.00 | 0.00 | 55 | 1016.7 |
| 20260901161937 | 92 | 155 | 0.0 | 0.0 | 0.00 | 0.00 | 0.00 | 56 | 1016.8 |
| 20260901161437 | 92 | 184 | 5.0 | 6.0 | 0.00 | 0.00 | 0.00 | 55 | 1017.1 |
| 20260901160932 | 92 | 160 | 1.0 | 3.0 | 0.00 | 0.00 | 0.00 | 55 | 1016.9 |
| 20260901160428 | 91 | 181 | 2.0 | 3.0 | 0.00 | 0.00 | 0.00 | 57 | 1016.9 |
| 20260901155927 | 91 | 253 | 3.0 | 3.0 | 0.00 | 0.00 | 0.00 | 56 | 1016.8 |
| 20260901155422 | 91 | 208 | 3.0 | 3.0 | 0.00 | 0.00 | 0.00 | 58 | 1016.8 |
| 20260901154919 | 91 | 208 | 3.0 | 3.0 | 0.00 | 0.00 | 0.00 | 57 | 1016.9 |
| 20260901154417 | 91 | 251 | 2.0 | 4.0 | 0.00 | 0.00 | 0.00 | 57 | 1016.8 |
| 20260901153913 | 90 | 229 | 0.0 | 0.0 | 0.00 | 0.00 | 0.00 | 58 | 1016.9 |
| 20260901153412 | 90 | 217 | 5.0 | 7.0 | 0.00 | 0.00 | 0.00 | 59 | 1016.7 |
| 20260901152911 | 90 | 235 | 6.0 | 7.0 | 0.00 | 0.00 | 0.00 | 59 | 1016.9 |
| 20260901152406 | 89 | 221 | 1.0 | 2.0 | 0.00 | 0.00 | 0.00 | 61 | 1016.8 |
| 20260901151856 | 89 | 231 | 6.0 | 9.0 | 0.00 | 0.00 | 0.00 | 61 | 1016.7 |
| 20260901151355 | 89 | 175 | 7.0 | 9.0 | 0.00 | 0.00 | 0.00 | 60 | 1016.9 |
| 20260901150855 | 89 | 202 | 2.0 | 2.0 | 0.00 | 0.00 | 0.00 | 61 | 1016.8 |
| 20260901150352 | 88 | 172 | 3.0 | 4.0 | 0.00 | 0.00 | 0.00 | 62 | 1016.8 |
| 20260901145850 | 88 | 230 | 2.0 | 2.0 | 0.00 | 0.00 | 0.00 | 62 | 1016.8 |
| 20260901145350 | 88 | 199 | 3.0 | 3.0 | 0.00 | 0.00 | 0.00 | 64 | 1016.9 |
| 20260901144845 | 88 | 238 | 2.0 | 3.0 | 0.00 | 0.00 | 0.00 | 64 | 1016.8 |
| 20260901144341 | 87 | 200 | 3.0 | 4.0 | 0.00 | 0.00 | 0.00 | 66 | 1017.1 |
| 20260901143837 | 87 | 182 | 3.0 | 3.0 | 0.00 | 0.00 | 0.00 | 66 | 1017.2 |
| 20260901143333 | 87 | 209 | 2.0 | 2.0 | 0.00 | 0.00 | 0.00 | 67 | 1017.1 |
| 20260901142829 | 86 | 224 | 4.0 | 6.0 | 0.00 | 0.00 | 0.00 | 67 | 1016.9 |
| 20260901142328 | 86 | 223 | 0.0 | 0.0 | 0.00 | 0.00 | 0.00 | 67 | 1017.1 |
| 20260901141823 | 86 | 217 | 1.0 | 3.0 | 0.00 | 0.00 | 0.00 | 69 | 1016.8 |
| 20260901141318 | 85 | 181 | 1.0 | 3.0 | 0.00 | 0.00 | 0.00 | 70 | 1016.8 |
| 20260901140817 | 85 | 203 | 2.0 | 3.0 | 0.00 | 0.00 | 0.00 | 71 | 1017.1 |
| 20260901140315 | 84 | 215 | 3.0 | 4.0 | 0.00 | 0.00 | 0.00 | 71 | 1016.8 |
| 20260901135810 | 84 | 207 | 2.0 | 2.0 | 0.00 | 0.00 | 0.00 | 72 | 1017.0 |
| 20260901135310 | 84 | 186 | 0.0 | 1.0 | 0.00 | 0.00 | 0.00 | 74 | 1016.9 |
| 20260901134807 | 83 | 232 | 2.0 | 3.0 | 0.00 | 0.00 | 0.00 | 75 | 1017.3 |
| 20260901134301 | 83 | 191 | 2.0 | 3.0 | 0.00 | 0.00 | 0.00 | 75 | 1017.0 |
| 20260901133800 | 82 | 162 | 0.0 | 0.0 | 0.00 | 0.00 | 0.00 | 76 | 1017.0 |
| 20260901133254 | 82 | 173 | 2.0 | 3.0 | 0.00 | 0.00 | 0.00 | 77 | 1016.8 |
| 20260901132747 | 81 | 181 | 0.0 | 0.0 | 0.00 | 0.00 | 0.00 | 78 | 1016.9 |
| 20260901132242 | 81 | 181 | 2.0 | 2.0 | 0.00 | 0.00 | 0.00 | 78 | 1017.0 |
| 20260901131737 | 80 | 179 | 0.0 | 0.0 | 0.00 | 0.00 | 0.00 | 79 | 1016.9 |
| 20260901131236 | 80 | 163 | 0.0 | 0.0 | 0.00 | 0.00 | 0.00 | 79 | 1016.6 |
| 20260901130732 | 79 | 191 | 0.0 | 0.0 | 0.00 | 0.00 | 0.00 | 80 | 1016.7 |
| 20260901130231 | 78 | 192 | 0.0 | 0.0 | 0.00 | 0.00 | 0.00 | 81 | 1016.7 |
| 20260901125728 | 78 | 191 | 0.0 | 0.0 | 0.00 | 0.00 | 0.00 | 82 | 1016.9 |
| 20260901125223 | 77 | 192 | 0.0 | 0.0 | 0.00 | 0.00 | 0.00 | 83 | 1016.7 |
| 20260901124713 | 76 | 192 | 0.0 | 0.0 | 0.00 | 0.00 | 0.00 | 84 | 1016.5 |
| 20260901124212 | 76 | 192 | 0.0 | 0.0 | 0.00 | 0.00 | 0.00 | 84 | 1016.6 |
| 20260901123706 | 76 | 192 | 0.0 | 0.0 | 0.00 | 0.00 | 0.00 | 84 | 1016.6 |
| 20260901123201 | 76 | 192 | 0.0 | 0.0 | 0.00 | 0.00 | 0.00 | 83 | 1016.5 |
| 20260901122659 | 76 | 192 | 0.0 | 0.0 | 0.00 | 0.00 | 0.00 | 83 | 1016.1 |
| 20260901122154 | 76 | 192 | 0.0 | 0.0 | 0.00 | 0.00 | 0.00 | 83 | 1016.5 |
| 20260901121648 | 76 | 192 | 0.0 | 0.0 | 0.00 | 0.00 | 0.00 | 83 | 1016.1 |
| 20260901121144 | 76 | 192 | 0.0 | 0.0 | 0.00 | 0.00 | 0.00 | 82 | 1016.0 |
| 20260901120644 | 76 | 192 | 0.0 | 0.0 | 0.00 | 0.00 | 0.00 | 82 | 1016.1 |